Simultaneous Nadir Overpasses (SNOs) Predictions

Prediction of SNOs between LANDSAT-8 and NOAA-19 Satellite Orbit:

Table of predicted SNOs for the next 14.0 days since TLE Epoch: 6/26/2015
Index Date (LANDSAT-8) Time (LANDSAT-8) Lat,Lon (LANDSAT-8) SZA (LANDSAT-8 ) Date (NOAA-19) Time (NOAA-19) Lat,Lon (NOAA-19) SZA (NOAA-19 ) Distance(km) Time Diff (sec)
1 06/28/2015 13:19:57 -73.37, 161.69 130.00 06/28/2015 13:18:52 -73.34, 161.69 130.03 2.99 65
2 06/28/2015 14:09:25 73.23, -30.94 49.87 06/28/2015 14:09:57 73.23, -30.84 49.87 3.42 32
3 06/30/2015 18:53:43 73.33,-101.82 50.09 06/30/2015 18:53:19 73.32,-101.84 50.08 1.13 24
4 06/30/2015 19:43:13 -73.21, 65.58 130.03 06/30/2015 19:44:13 -73.23, 65.63 130.01 2.70 60
5 07/02/2015 23:37:56 73.63,-172.26 50.55 07/02/2015 23:36:45 73.66,-173.46 50.58 37.63 71
6 07/03/2015 00:27:30 -73.31, -5.31 129.78 07/03/2015 00:27:34 -73.31, -5.34 129.78 1.22 4
7 07/05/2015 05:11:49 -73.35, -76.31 129.56 07/05/2015 05:10:55 -73.34, -76.21 129.56 3.16 54
8 07/05/2015 06:01:16 73.26, 91.15 50.36 07/05/2015 06:01:59 73.24, 91.23 50.35 3.06 43
9 07/07/2015 10:45:34 73.34, 20.23 50.65 07/07/2015 10:45:21 73.35, 20.19 50.67 2.45 13
10 07/07/2015 11:35:04 -73.23,-172.36 129.45 07/07/2015 11:36:16 -73.25,-172.30 129.43 2.65 72
11 07/09/2015 15:29:52 73.41, -50.69 50.98 07/09/2015 15:28:42 73.42, -50.76 50.99 2.40 70
12 07/09/2015 16:19:22 -73.30, 116.72 129.13 07/09/2015 16:19:38 -73.33, 116.70 129.10 3.40 16




NCC Satellite Simultaneous Nadir Overpasses (SNOs) Prediction Service
